Location: Anmer
(52.8333°N, 0.5833°E)
Time: 07:58:56
(UTC+00:00)

Cosmos 1937 Rocket - Pass Details

Date: 15 May 2026
Orbit: 743 x 774 km, 74.0° (Epoch: 5 June)

Event Time Altitude Azimuth Distance (km) Brightness Sun altitude
Rises 22:19:26 0° 335° (NNW) 3,210 8.7 -15.3°
Reaches altitude 10° 22:21:52 10° 341° (NNW) 2,278 7.4 -15.4°
Maximum altitude 22:26:55 53° 58° (ENE) 912 3.9 -15.7°
Enters shadow 22:30:09 21° 128° (SE) 1,617 4.7 -15.9°
